Chadron, NE

11:39 AM MDT on May 23, 2018 (GMT -0600)
Chadron Municipal

Weather History for KCDR - July, 2013

Change the Weather History Date:

Thursday, July 11, 2013

  Actual Average Record
Temperature  
Mean Temperature 84 °F 73 °F  
Max Temperature 100 °F 89 °F 110 °F (1939)
Min Temperature 67 °F 57 °F 45 °F (1922)
Degree Days  
Heating Degree Days 0 0  
Month to date heating degree days 0 5  
Since 1 June heating degree days 58 86  
Since 1 July heating degree days 0 5  
Cooling Degree Days 19 8  
Month to date cooling degree days 118 83  
Year to date cooling degree days 258 211  
Since 1 June cooling degree days 230 191  
Growing Degree Days 34 (Base 50)    
Moisture  
Dew Point 59 °F    
Average Humidity 47    
Maximum Humidity 70    
Minimum Humidity 24    
Precipitation  
Precipitation T in 0.07 in 1.60 in (2000)
Month to date precipitation 1.09 0.80  
Year to date precipitation 9.93 10.98  
Sea Level Pressure  
Sea Level Pressure 29.80 in    
Wind  
Wind Speed 18 mph (South)    
Max Wind Speed 37 mph    
Max Gust Speed 46 mph    
Visibility 10 miles    
Events      
T = Trace of Precipitation, MM = Missing Value Source: NWS Daily Summary

Daily Weather History Graph

Daily Weather History Graph

Search for Another Location

Airport or City:

Astronomy

Jul. 11, 2013 Rise Set
Actual Time 5:24 AM MDT 8:31 PM MDT
Civil Twilight 4:50 AM MDT 9:05 PM MDT
Nautical Twilight 4:06 AM MDT 9:49 PM MDT
Astronomical Twilight 3:13 AM MDT 10:41 PM MDT
Moon 8:51 AM MDT (7/11) 10:05 PM MDT (7/11)
Length of Visible Light 16h 15m
Length of Day
15h 06m
Waxing Crescent, 11% of the Moon is Illuminated
Jul 11
Waxing Crescent
Jul 15
First Quarter
Jul 22
Full
Jul 29
Last Quarter
Aug 6
New

Hourly Weather History & Observations

Time (MDT) Temp. Heat Index Dew Point Humidity Pressure Visibility Wind Dir Wind Speed Gust Speed Precip Events Conditions
12:53 AM 77.0 °F - 60.1 °F 56% 29.92 in 10.0 mi South 18.4 mph 29.9 mph N/A   Clear
1:53 AM 75.0 °F - 59.0 °F 57% 29.91 in 10.0 mi South 24.2 mph 32.2 mph N/A   Clear
2:53 AM 73.0 °F - 60.1 °F 64% 29.90 in 10.0 mi South 19.6 mph 31.1 mph N/A   Clear
3:53 AM 71.1 °F - 60.1 °F 68% 29.88 in 10.0 mi WSW 9.2 mph - N/A   Clear
4:53 AM 69.1 °F - 59.0 °F 70% 29.87 in 10.0 mi WSW 5.8 mph - N/A   Clear
5:53 AM 69.1 °F - 59.0 °F 70% 29.88 in 10.0 mi SW 5.8 mph - N/A   Clear
6:53 AM 72.0 °F - 60.1 °F 66% 29.89 in 10.0 mi SSE 8.1 mph - N/A   Clear
7:53 AM 75.9 °F - 60.1 °F 58% 29.88 in 10.0 mi South 9.2 mph - N/A   Clear
8:53 AM 80.1 °F 80.9 °F 60.1 °F 50% 29.86 in 10.0 mi SW 9.2 mph - N/A   Clear
9:53 AM 84.0 °F 84.4 °F 61.0 °F 46% 29.84 in 9.0 mi South 9.2 mph - N/A   Clear
10:53 AM 90.0 °F 90.0 °F 61.0 °F 38% 29.82 in 10.0 mi South 6.9 mph 16.1 mph N/A   Clear
11:53 AM 93.9 °F 94.0 °F 61.0 °F 33% 29.80 in 10.0 mi South 15.0 mph - N/A   Clear
11:58 AM 93.2 °F 93.3 °F 60.8 °F 34% 29.90 in 1.8 mi SSW 16.1 mph 23.0 mph N/A   Haze
12:13 PM 93.2 °F 92.6 °F 59.0 °F 32% 29.90 in 10.0 mi SSW 16.1 mph 25.3 mph N/A   Clear
12:53 PM 95.0 °F 94.8 °F 60.1 °F 31% 29.77 in 10.0 mi South 23.0 mph - N/A   Clear
1:53 PM 97.0 °F 96.5 °F 59.0 °F 28% 29.76 in 10.0 mi South 19.6 mph 27.6 mph N/A   Clear
2:53 PM 99.0 °F 97.7 °F 55.9 °F 24% 29.74 in 10.0 mi South 25.3 mph 29.9 mph N/A   Clear
3:53 PM 99.0 °F 98.1 °F 57.0 °F 25% 29.72 in 10.0 mi SSE 23.0 mph 31.1 mph N/A   Clear
4:53 PM 98.1 °F 96.4 °F 55.9 °F 24% 29.70 in 10.0 mi SSE 23.0 mph 33.4 mph N/A   Clear
5:53 PM 93.9 °F 92.0 °F 55.0 °F 27% 29.70 in 10.0 mi SSE 23.0 mph 29.9 mph N/A   Clear
6:53 PM 91.0 °F 90.0 °F 57.9 °F 33% 29.71 in 10.0 mi SSE 20.7 mph 25.3 mph N/A   Clear
7:53 PM 90.0 °F 88.6 °F 57.0 °F 33% 29.67 in 10.0 mi SSE 27.6 mph 32.2 mph N/A   Scattered Clouds
8:53 PM 87.1 °F 85.9 °F 57.0 °F 36% 29.68 in 10.0 mi SSE 21.9 mph 29.9 mph 0.00 in   Clear
9:53 PM 86.0 °F 85.4 °F 59.0 °F 40% 29.70 in 10.0 mi SSE 23.0 mph 35.7 mph N/A   Clear
10:53 PM 84.9 °F 84.4 °F 59.0 °F 41% 29.69 in 10.0 mi South 23.0 mph 32.2 mph N/A   Clear
11:53 PM 82.9 °F 83.2 °F 60.1 °F 46% 29.69 in 10.0 mi South 29.9 mph 38.0 mph N/A   Clear